Weather History for Kremmling, CO

Change the Weather History Date:

Wednesday, February 6, 2013

  Actual Average (KEGE) Record (KEGE)
Temperature  
Mean Temperature 14 °F -  
Max Temperature 28 °F 35 °F 54 °F (1963)
Min Temperature 1 °F 2 °F -31 °F (1982)
Degree Days  
Heating Degree Days 50    
Moisture  
Dew Point 11 °F    
Average Humidity 83    
Maximum Humidity 93    
Minimum Humidity 59    
Precipitation  
Precipitation 0.07 in - - ()
Sea Level Pressure  
Sea Level Pressure 30.02 in    
Wind  
Wind Speed 0 mph (South)    
Max Wind Speed 6 mph    
Max Gust Speed -    
Averages and records for this station are not official NWS values.
T = Trace of Precipitation, MM = Missing Value Source: NWS Daily Summary

Daily Weather History Graph

Daily Weather History Graph

Search for Another Location

Airport:

Trip Planner

Search our weather history database for the weather conditions in past years. The results will help you decide how hot, cold, wet, or windy it might be!

Date:

Astronomy

Feb. 06, 2013 Rise Set
Actual Time 7:08 AM MST 5:31 PM MST
Civil Twilight 6:40 AM MST 5:59 PM MST
Nautical Twilight 6:08 AM MST 6:31 PM MST
Astronomical Twilight 5:36 AM MST 7:03 PM MST
Moon 3:55 AM MST (2/6) 1:52 PM MST (2/6)
Length of Visible Light 11h 18m
Length of Day
10h 22m
Waning Crescent, 16% of the Moon is Illuminated
Feb 6
Waning Crescent
Feb 10
New
Feb 17
First Quarter
Feb 25
Full
Mar 4
Last Quarter

Hourly Weather History & Observations

Time (MST) Temp. Windchill Dew Point Humidity Pressure Visibility Wind Dir Wind Speed Gust Speed Precip Events Conditions
12:16 AM 10.4 °F - 5.0 °F 79% 30.02 in - Calm Calm - N/A   Unknown
12:36 AM 10.4 °F - 6.8 °F 85% 30.02 in - Calm Calm - N/A   Mostly Cloudy
12:56 AM 10.4 °F - 6.8 °F 85% 30.02 in - Calm Calm - N/A   Mostly Cloudy
1:16 AM 8.6 °F - 3.2 °F 79% 30.02 in - Calm Calm - N/A   Mostly Cloudy
1:36 AM 8.6 °F - 3.2 °F 79% 30.02 in - Calm Calm - N/A   Overcast
1:56 AM 8.6 °F - 3.2 °F 79% 30.02 in - Calm Calm - N/A   Mostly Cloudy
2:16 AM 5.0 °F - 1.4 °F 85% 30.01 in - Calm Calm - N/A   Overcast
2:36 AM 8.6 °F - 3.2 °F 79% 30.01 in - Calm Calm - N/A   Mostly Cloudy
2:56 AM 5.0 °F - 1.4 °F 85% 30.01 in - Calm Calm - N/A   Unknown
3:16 AM 5.0 °F - 1.4 °F 85% 30.00 in - Calm Calm - N/A   Unknown
3:36 AM 3.2 °F - -0.4 °F 85% 30.00 in - Calm Calm - N/A   Unknown
3:56 AM 3.2 °F - -0.4 °F 85% 30.00 in - Calm Calm - N/A   Unknown
4:16 AM 3.2 °F - -0.4 °F 85% 30.00 in - Calm Calm - N/A   Unknown
4:36 AM 3.2 °F - -0.4 °F 85% 29.99 in - Calm Calm - N/A   Mostly Cloudy
4:56 AM 3.2 °F - -0.4 °F 85% 29.99 in - Calm Calm - N/A   Mostly Cloudy
5:16 AM 1.4 °F - -2.2 °F 85% 29.99 in - Calm Calm - N/A   Unknown
5:36 AM 1.4 °F - -0.4 °F 92% 29.99 in - Calm Calm - N/A   Unknown
5:55 AM 1.4 °F - -4.0 °F 78% 29.99 in - Calm Calm - N/A   Unknown
6:16 AM 1.4 °F - -4.0 °F 78% 29.99 in - Calm Calm - N/A   Mostly Cloudy
6:36 AM 3.2 °F - -0.4 °F 85% 29.99 in - Calm Calm - N/A   Overcast
6:56 AM 3.2 °F - -0.4 °F 85% 29.99 in - Calm Calm - N/A   Overcast
7:15 AM 3.2 °F - -0.4 °F 85% 30.00 in - Calm Calm - N/A   Overcast
7:36 AM 3.2 °F - -0.4 °F 85% 30.01 in - Calm Calm - N/A   Overcast
7:55 AM 5.0 °F - 1.4 °F 85% 30.01 in - Calm Calm - N/A   Overcast
8:35 AM 8.6 °F - 3.2 °F 79% 30.02 in - Calm Calm - N/A   Overcast
8:56 AM 10.4 °F - 5.0 °F 79% 30.02 in - Calm Calm - N/A   Overcast
9:16 AM 10.4 °F - 5.0 °F 79% 30.02 in - Calm Calm - N/A   Overcast
9:36 AM 10.4 °F - 5.0 °F 79% 30.02 in - Calm Calm - N/A   Overcast
9:55 AM 10.4 °F - 5.0 °F 79% 30.02 in - Calm Calm - N/A   Overcast
10:16 AM 12.2 °F - 5.0 °F 73% 30.02 in - Calm Calm - N/A   Overcast
10:36 AM 12.2 °F - 6.8 °F 79% 30.01 in - Calm Calm - N/A   Overcast
10:56 AM 15.8 °F - 8.6 °F 73% 30.01 in - Calm Calm - N/A   Mostly Cloudy
11:16 AM 17.6 °F - 10.4 °F 73% 30.01 in - Calm Calm - N/A   Mostly Cloudy
11:36 AM 17.6 °F - 10.4 °F 73% 30.01 in - Calm Calm - N/A   Mostly Cloudy
11:56 AM 19.4 °F - 10.4 °F 68% 29.99 in - Calm Calm - N/A   Scattered Clouds
12:16 PM 19.4 °F - 12.2 °F 74% 29.99 in - Calm Calm - N/A   Mostly Cloudy
12:36 PM 21.2 °F - 12.2 °F 68% 29.98 in - Calm Calm - N/A   Mostly Cloudy
12:56 PM 23.0 °F - 12.2 °F 63% 29.97 in - Calm Calm - N/A   Scattered Clouds
1:16 PM 26.6 °F - 14.0 °F 59% 29.97 in - Calm Calm - N/A   Mostly Cloudy
1:36 PM 28.4 °F - 15.8 °F 59% 29.96 in - Calm Calm - N/A   Overcast
1:55 PM 24.8 °F - 14.0 °F 64% 29.96 in - Calm Calm - N/A   Overcast
2:16 PM 24.8 °F - 15.8 °F 69% 29.96 in - Calm Calm - N/A Snow Light Snow
2:36 PM 24.8 °F - 17.6 °F 74% 29.96 in - Calm Calm - N/A Snow Light Snow
2:56 PM 23.0 °F - 19.4 °F 86% 29.97 in - Calm Calm - N/A Snow Light Snow
3:16 PM 23.0 °F - 19.4 °F 86% 29.98 in - Calm Calm - N/A Snow Light Snow
3:36 PM 23.0 °F - 19.4 °F 86% 29.98 in - Calm Calm - N/A Snow Light Snow
3:56 PM 23.0 °F - 19.4 °F 86% 29.99 in - Calm Calm - 0.01 in Snow Snow
4:15 PM 23.0 °F - 19.4 °F 86% 29.99 in - Calm Calm - 0.01 in Snow Light Snow
4:36 PM 23.0 °F - 19.4 °F 86% 30.00 in - Calm Calm - 0.02 in Snow Light Snow
4:56 PM 23.0 °F - 21.2 °F 93% 30.01 in - Calm Calm - 0.03 in Snow Snow
5:16 PM 23.0 °F - 21.2 °F 93% 30.01 in - Calm Calm - N/A Snow Snow
5:36 PM 23.0 °F - 21.2 °F 93% 30.02 in - Calm Calm - 0.01 in Snow Snow
5:56 PM 23.0 °F - 21.2 °F 93% 30.02 in - Calm Calm - 0.02 in Snow Light Snow
6:16 PM 23.0 °F - 21.2 °F 93% 30.04 in - Calm Calm - N/A Snow Light Snow
6:36 PM 23.0 °F - 21.2 °F 93% 30.04 in - Calm Calm - 0.01 in Snow Light Snow
6:55 PM 23.0 °F - 21.2 °F 93% 30.05 in - Calm Calm - 0.01 in Snow Light Snow
7:15 PM 23.0 °F - 21.2 °F 93% 30.06 in - Calm Calm - N/A Snow Light Snow
7:35 PM 23.0 °F - 21.2 °F 93% 30.06 in - Calm Calm - N/A   Unknown
7:55 PM 23.0 °F - 21.2 °F 93% 30.06 in - Calm Calm - N/A   Unknown
8:16 PM 26.6 °F - 23.0 °F 86% 30.06 in - Calm Calm - N/A   Overcast
8:36 PM 28.4 °F 23.3 °F 23.0 °F 80% 30.07 in - South 4.6 mph - N/A   Overcast
8:56 PM 28.4 °F - 23.0 °F 80% 30.07 in - Calm Calm - N/A   Overcast
9:16 PM 26.6 °F - 21.2 °F 80% 30.08 in - Calm Calm - N/A   Unknown
9:35 PM 23.0 °F 15.8 °F 19.4 °F 86% 30.09 in - SSW 5.8 mph - N/A   Overcast
9:56 PM 23.0 °F 15.8 °F 21.2 °F 93% 30.09 in - SW 5.8 mph - N/A   Mostly Cloudy
10:16 PM 23.0 °F - 19.4 °F 86% 30.10 in - Calm Calm - N/A   Mostly Cloudy
10:36 PM 21.2 °F - 19.4 °F 93% 30.11 in - Calm Calm - N/A   Mostly Cloudy
10:56 PM 19.4 °F - 17.6 °F 93% 30.12 in - Calm Calm - N/A   Mostly Cloudy
11:16 PM 17.6 °F - 15.8 °F 93% 30.12 in - Calm Calm - N/A   Unknown
11:36 PM 19.4 °F - 17.6 °F 93% 30.12 in - Calm Calm - N/A   Mostly Cloudy
11:56 PM 17.6 °F 12.3 °F 14.0 °F 86% 30.12 in - ESE 3.5 mph - N/A   Overcast